Regional Weather Roundup
Issued by NWS

Home | Current Version | Previous Version | Graphics & Text | Print | Product List | Glossary On
Versions: 1 2 3 4 5 6 7 8 9 10 11 12 13 14 15 16 17 18 19 20 21 22 23 24 25 26 27 28 29 30 31 32 33 34 35 36 37 38 39 40 41 42 43 44 45 46 47 48 49 50
000
ASUS43 KBIS 231410
RWRND

NORTH DAKOTA REGIONAL WEATHER ROUNDUP
NATIONAL WEATHER SERVICE BISMARCK ND
900 AM CDT SAT MAY 23 2015

NOTE: "FAIR" INDICATES FEW OR NO CLOUDS BELOW 12,000 FEET WITH NO
SIGNIFICANT WEATHER AND/OR OBSTRUCTIONS TO VISIBILITY.


NDZ001>003-009>011-017-231500-
NORTHWEST NORTH DAKOTA

CITY           SKY/WX    TMP DP  RH WIND       PRES   REMARKS
WILLISTON      SUNNY     58  41  53 NE3       30.13S
MINOT          SUNNY     60  40  47 SW8       30.13F
MINOT AFB      MOSUNNY   62  43  50 SW7       30.12F
$$

NDZ018>021-031>035-040>046-231500-
SOUTHWEST NORTH DAKOTA

CITY           SKY/WX    TMP DP  RH WIND       PRES   REMARKS
BISMARCK       MOSUNNY   54  45  71 SE7       30.17S
DICKINSON      MOSUNNY   50  43  77 SE10      30.10F
GARRISON         N/A     56  42  59 S6        30.15S
HETTINGER ARPT PTSUNNY   49  44  83 SE10      30.11S
$$

NDZ004>008-012>016-024-026-027-054-231500-
NORTHEAST NORTH DAKOTA

CITY           SKY/WX    TMP DP  RH WIND       PRES   REMARKS
GRAND FORKS    MOSUNNY   59  44  57 SW3       30.14S
GRND FRKS AFB  SUNNY     62  44  52 W8        30.14S
DEVILS LAKE    SUNNY     61  45  55 SW8       30.15S
$$

NDZ022-023-025-028>030-036>039-047>053-231500-
SOUTHEAST NORTH DAKOTA

CITY           SKY/WX    TMP DP  RH WIND       PRES   REMARKS
FARGO          MOSUNNY   62  45  53 SW8       30.19S
JAMESTOWN      SUNNY     59  43  55 S10       30.17S
$$




USA.gov is the U.S. government's official web portal to all federal, state and local government web resources and services.